Location: Powder Track
(41.8531°N, 72.3584°W)
Time: 13:13:23
(UTC+00:00)

Tiros 1 despin weight - Pass Details

Date: 04 August 2021
Orbit: 594 x 641 km, 48.2° (Epoch: 16 September)

Event Time Altitude Azimuth Distance (km) Brightness Sun altitude
Rises 00:43:47 0° 280° (W) 2,933 ? -7.2°
Reaches altitude 10° 00:48:17 10° 240° (WSW) 2,009 ? -8.0°
Maximum altitude 00:49:03 10° 231° (SW) 1,981 ? -8.1°
Drops below altitude 10° 00:49:50 10° 221° (SW) 2,002 ? -8.2°
Sets 00:54:17 0° 180° (S) 2,888 ? -8.9°
